Wind_Speed
22 23 25 26 28 27 27 25 25 26 24 24 24 25 27 26 25 27 26 25 29 29 28 26 30 36 38 31 30 30 29 31 33 35 39 41 40 41 40 39 37 38 38 36
27 24 25 27 28 28 32 31 29 28 25 26 26 28 30 30 29 29 30 30 30 32 31 30 30 32 36 35 32 31 28 30 31 35 34 40 40 39 39 40 39 37 36 35
33 30 28 29 29 30 31 31 30 27 28 29 32 33 32 33 32 33 34 37 36 34 34 33 30 32 37 38 35 32 29 29 31 31 36 33 36 38 36 38 38 42 37 37
37 35 33 33 33 31 32 33 33 31 32 34 34 35 36 37 37 37 39 41 42 40 36 36 36 36 38 42 37 32 30 28 30 30 32 30 35 39 37 34 35 36 37 33
43 41 38 39 38 37 36 33 33 34 35 35 33 37 39 41 42 42 41 43 43 42 40 38 38 40 42 44 38 33 30 27 28 26 26 29 29 32 35 34 31 34 35 32
44 44 42 40 40 39 38 37 36 36 36 35 36 40 41 43 44 44 43 42 45 42 40 42 40 41 42 43 38 37 32 30 29 27 25 23 27 28 30 34 32 31 30 36
41 41 42 40 37 35 37 37 37 36 37 38 39 41 41 41 41 42 43 43 44 43 41 40 35 40 45 45 43 43 37 32 30 29 26 19 29 33 31 34 35 33 33 29
45 44 41 39 36 32 33 34 38 38 37 37 36 35 35 37 39 40 39 38 39 39 40 39 35 43 52 52 51 46 39 36 32 29 23 19 29 34 30 36 29 35 35 34
46 45 43 41 38 36 34 33 31 31 31 30 30 32 33 33 34 34 33 32 35 39 35 36 40 50 57 57 53 48 42 40 32 26 31 25 30 34 30 33 30 32 38 28
49 46 44 42 41 37 35 32 29 31 29 25 30 30 29 30 32 34 33 30 33 36 34 33 43 53 57 54 51 49 43 38 35 31 31 33 33 36 30 32 35 39 34 27
51 50 48 43 41 39 38 36 33 32 31 27 32 30 30 35 34 34 34 29 29 32 24 32 41 49 50 51 49 48 43 40 34 26 21 23 34 29 27 31 37 35 22 20
57 53 50 47 42 41 41 41 39 37 34 29 36 35 32 35 35 37 35 29 22 23 23 29 40 45 51 53 48 44 39 40 36 31 29 23 22 24 24 28 37 26 21 31
59 55 53 49 47 42 42 43 43 43 43 34 37 38 37 35 36 36 34 28 23 22 26 35 40 46 50 49 43 40 39 40 41 40 35 31 31 32 30 35 39 34 39 30
62 57 55 52 49 48 43 47 47 45 45 42 39 41 39 37 38 39 34 30 28 25 27 34 40 44 47 46 40 39 41 41 43 42 34 29 34 33 28 37 40 40 38 33
64 62 59 58 52 54 50 48 50 50 50 45 43 43 39 42 41 41 40 32 34 32 31 38 45 41 36 39 38 42 41 42 40 35 28 34 36 30 31 39 38 35 39 34
63 61 57 56 54 56 55 52 53 53 54 51 44 44 44 45 46 46 44 38 34 36 33 37 51 46 37 35 36 38 40 43 35 36 33 33 37 30 30 38 40 44 44 35
64 65 62 62 60 60 58 55 55 55 55 55 51 51 48 46 47 50 50 38 35 40 36 38 44 42 33 33 38 40 39 37 37 37 34 35 41 37 31 40 44 47 38 32
57 56 58 59 55 55 57 56 57 56 56 55 49 49 49 48 49 50 49 34 36 42 40 40 42 32 29 33 37 36 39 37 35 32 38 46 42 41 33 31 30 33 35 25
52 54 55 55 55 55 57 58 59 56 55 53 50 47 46 49 50 48 35 34 37 43 46 42 41 36 43 40 35 33 37 41 35 35 41 41 41 44 42 32 28 28 33 23
53 52 52 49 48 50 52 53 53 55 55 52 45 48 50 51 48 35 31 35 38 43 46 39 48 49 48 40 36 38 34 35 35 32 39 30 37 36 36 36 43 27 25 35
54 53 51 51 52 52 53 53 50 50 47 46 44 46 48 45 31 30 31 33 36 42 43 43 48 52 48 40 41 41 38 39 40 41 30 33 36 31 36 41 33 30 35 37
47 50 50 50 49 50 49 47 42 45 44 44 43 41 40 30 28 31 32 32 31 39 47 51 49 48 49 45 40 43 42 39 41 41 45 33 40 37 37 29 37 35 28 34
37 37 37 40 43 44 44 40 42 43 41 40 40 33 28 28 28 29 30 30 33 37 47 54 48 44 44 43 40 33 42 45 47 47 39 40 41 42 39 39 39 42 46 49
31 34 38 38 39 38 38 37 38 39 36 31 27 26 27 24 23 23 27 32 35 36 45 53 44 40 38 36 35 30 29 32 32 31 41 45 47 42 42 50 53 54 58 56
25 24 25 27 28 30 31 30 26 23 26 26 27 28 26 24 23 19 24 28 35 39 45 49 46 40 37 33 27 29 30 35 33 37 42 35 41 44 43 48 53 61 68 70
21 23 24 25 23 21 20 20 21 22 23 25 26 26 24 23 22 21 23 29 34 36 40 43 42 33 30 29 23 19 14 25 26 23 24 28 32 31 38 42 46 47 52 54
19 17 18 18 19 20 20 21 22 24 25 25 25 24 23 23 23 21 23 29 32 34 32 36 36 32 29 21 20 19 13 18 20 24 28 23 21 25 24 22 24 35 42 49
Wind_Direction
284 287 285 275 269 270 273 274 273 272 271 265 262 264 266 266 271 274 271 271 271 268 268 270 261 257 259 247 250 256 254 256 250 245 242 243 241 237 235 230 226 227 234 242
278 282 287 283 279 275 273 271 272 272 270 270 265 265 266 269 272 276 276 275 275 271 265 263 268 262 250 248 245 250 248 249 251 248 246 246 241 240 235 232 227 225 231 244
277 279 284 284 282 278 277 277 269 271 268 272 267 267 269 271 274 272 276 278 274 275 273 263 261 261 253 242 240 246 243 247 247 243 244 244 243 240 235 233 227 226 227 231
276 277 278 281 281 279 278 277 274 270 269 269 272 272 275 275 276 278 280 280 281 278 272 261 254 250 250 242 234 238 240 238 247 244 243 241 241 237 236 236 232 231 229 226
272 276 279 280 278 274 274 276 275 272 270 271 271 273 275 276 278 284 283 281 279 277 271 267 254 253 246 237 231 231 229 226 233 239 242 241 246 246 238 235 233 231 226 222
274 275 277 278 277 275 269 269 269 270 270 272 275 275 276 278 280 282 282 280 279 276 273 269 260 248 232 227 225 226 230 227 232 244 242 236 238 243 238 235 227 228 225 222
271 272 275 277 279 274 269 268 267 266 268 271 274 276 279 280 281 282 282 279 278 274 270 268 254 229 215 213 216 220 223 222 228 240 240 238 233 239 231 226 227 216 217 222
267 271 275 277 277 276 275 272 267 267 270 270 271 276 278 280 283 286 285 280 275 274 271 262 245 216 209 205 211 215 221 224 230 236 215 229 234 239 233 226 223 217 211 213
264 269 270 272 275 278 278 277 266 263 263 266 270 274 280 292 293 292 291 283 279 278 271 251 234 210 209 206 204 211 218 222 229 229 225 236 239 240 236 230 224 218 227 220
261 262 265 267 271 270 273 271 270 264 262 264 265 273 288 298 302 301 302 287 288 278 272 238 224 211 212 207 205 208 213 222 221 222 232 238 241 236 230 225 225 228 233 218
255 258 262 264 267 264 264 267 266 264 264 260 267 279 286 291 302 308 307 291 286 284 247 215 212 211 211 210 210 208 209 216 194 198 209 223 232 232 227 228 227 229 210 218
255 256 260 263 262 261 260 259 262 261 262 262 268 273 280 289 296 305 302 286 278 266 222 201 207 208 210 211 211 209 209 211 199 201 216 222 237 248 217 221 225 210 223 212
251 253 256 255 261 260 257 258 260 259 262 263 266 270 281 285 291 298 300 285 268 250 222 211 208 208 211 213 212 209 207 212 215 218 219 230 254 242 221 214 213 201 216 241
251 251 252 255 255 256 257 256 258 261 263 262 264 269 279 284 286 290 300 286 257 241 228 220 212 210 213 212 207 205 210 215 215 216 233 234 240 238 224 215 209 210 221 215
245 247 248 251 254 248 251 254 257 261 264 266 261 267 278 280 285 289 296 293 251 237 231 217 206 205 209 209 208 207 213 218 228 234 237 234 232 234 218 208 201 199 202 204
241 242 246 244 242 246 251 253 257 259 261 263 261 266 275 275 275 283 293 294 243 237 226 221 212 215 217 213 212 219 222 222 229 230 226 228 232 223 206 211 204 207 211 219
240 242 245 243 246 248 251 254 253 254 260 263 264 268 268 269 273 279 290 282 231 230 224 218 208 211 206 200 211 217 221 216 220 222 226 230 232 229 209 212 218 220 221 239
237 238 240 243 247 246 247 249 255 256 259 261 264 265 268 271 273 280 286 258 223 221 221 214 203 191 199 217 209 214 206 206 216 217 225 229 234 234 216 214 215 223 230 230
235 238 240 243 243 245 249 250 253 255 258 260 262 263 266 268 274 283 263 234 217 216 217 211 197 198 211 207 195 208 216 211 220 218 224 231 233 240 237 222 212 221 221 214
233 236 237 240 242 244 246 246 251 254 257 261 261 259 263 270 277 263 234 225 219 214 214 206 204 205 202 206 207 207 216 226 219 218 216 222 224 229 220 215 211 222 222 209
234 234 237 239 240 242 245 249 250 250 252 254 256 261 266 271 257 235 226 221 224 218 208 205 209 201 205 216 216 209 213 222 231 212 220 220 218 223 219 219 222 235 239 223
232 236 235 236 236 239 241 243 246 251 254 255 258 258 262 245 229 224 225 225 223 215 204 205 209 206 211 220 214 211 206 220 232 229 228 221 215 218 220 215 216 229 232 237
229 233 233 233 235 236 240 247 249 251 252 253 254 246 224 223 223 226 226 221 217 210 202 205 208 210 214 218 213 210 217 222 226 236 235 228 222 221 220 222 230 238 237 239
234 234 232 233 238 241 243 246 250 252 250 232 210 210 217 216 213 219 218 214 211 207 205 204 203 209 213 218 218 211 214 226 229 235 243 248 252 250 249 252 252 249 250 255
214 212 217 223 229 234 239 241 233 215 198 194 203 207 206 202 205 214 215 211 204 203 204 203 202 208 212 215 214 218 221 233 242 245 249 251 252 255 256 260 262 266 266 266
208 214 224 227 223 211 203 198 195 198 202 201 201 204 207 208 207 217 214 205 201 200 201 198 195 196 203 216 217 215 220 221 218 225 228 236 248 258 266 266 263 262 265 261
205 195 188 186 193 198 202 204 203 199 194 196 204 211 213 217 212 220 214 200 194 190 194 187 188 190 201 202 209 212 217 228 236 243 246 233 244 253 253 261 263 262 258 258
Height
10830 10830 10830 10830 10830 10831 10830 10831 10830 10829 10828 10828 10829 10829 10830 10831 10833 10833 10834 10835 10834 10833 10832 10832 10834 10836 10835 10841 10844 10844 10847 10846 10847 10847 10847 10849 10855 10859 10865 10871 10876 10880 10885 10890
10822 10822 10822 10822 10822 10822 10821 10821 10822 10821 10822 10821 10821 10820 10820 10822 10825 10824 10824 10825 10825 10824 10824 10825 10824 10825 10827 10830 10834 10836 10839 10838 10840 10841 10843 10842 10847 10853 10857 10862 10870 10874 10879 10884
10812 10812 10813 10813 10813 10813 10812 10811 10812 10814 10813 10812 10812 10812 10812 10814 10816 10815 10814 10810 10813 10815 10815 10816 10817 10815 10816 10821 10825 10828 10832 10832 10831 10834 10833 10837 10840 10843 10848 10854 10861 10866 10872 10876
10801 10802 10802 10803 10804 10804 10803 10802 10803 10804 10804 10803 10803 10802 10801 10802 10802 10804 10804 10801 10800 10801 10802 10803 10804 10805 10805 10810 10816 10820 10825 10826 10825 10826 10827 10831 10832 10834 10840 10847 10855 10863 10866 10872
10790 10790 10791 10791 10793 10793 10794 10793 10792 10792 10793 10793 10794 10790 10790 10790 10788 10791 10793 10789 10787 10785 10786 10789 10791 10792 10794 10799 10807 10812 10816 10819 10819 10819 10821 10824 10827 10830 10835 10841 10848 10852 10856 10862
10777 10778 10779 10780 10780 10781 10782 10782 10782 10782 10782 10782 10782 10777 10778 10777 10776 10775 10777 10776 10771 10771 10772 10772 10774 10776 10780 10789 10798 10803 10807 10812 10815 10815 10816 10819 10822 10822 10826 10834 10839 10843 10849 10850
10765 10766 10767 10768 10768 10768 10769 10770 10770 10771 10771 10770 10769 10766 10766 10763 10764 10764 10761 10761 10758 10755 10756 10756 10758 10760 10766 10775 10784 10791 10797 10802 10807 10808 10811 10815 10814 10813 10817 10823 10831 10836 10839 10848
10753 10754 10755 10756 10757 10757 10757 10758 10758 10759 10759 10757 10756 10757 10755 10752 10752 10750 10749 10745 10742 10741 10742 10742 10744 10748 10752 10757 10769 10780 10789 10794 10798 10802 10805 10806 10805 10806 10812 10814 10822 10829 10830 10838
10739 10741 10743 10745 10746 10747 10747 10748 10746 10747 10748 10747 10747 10746 10745 10743 10740 10738 10736 10734 10729 10727 10726 10726 10731 10735 10740 10745 10756 10769 10779 10785 10790 10795 10798 10799 10795 10802 10807 10811 10816 10822 10822 10834
10725 10728 10730 10732 10735 10736 10736 10737 10738 10737 10738 10740 10738 10737 10736 10734 10730 10728 10726 10722 10720 10714 10712 10712 10718 10726 10733 10743 10751 10760 10768 10778 10783 10786 10790 10791 10790 10794 10799 10806 10813 10814 10819 10827
10710 10714 10717 10719 10722 10724 10725 10726 10727 10727 10728 10732 10728 10728 10728 10725 10723 10719 10716 10714 10710 10704 10699 10702 10711 10720 10730 10738 10745 10754 10761 10768 10774 10779 10784 10786 10786 10788 10796 10800 10803 10808 10818 10823
10693 10698 10702 10706 10709 10712 10713 10714 10716 10716 10717 10722 10718 10718 10719 10717 10715 10712 10708 10706 10704 10700 10701 10702 10709 10714 10721 10731 10741 10751 10759 10764 10769 10775 10779 10783 10781 10781 10789 10795 10799 10806 10810 10814
10676 10682 10687 10692 10695 10698 10701 10702 10703 10704 10705 10711 10708 10707 10709 10708 10706 10703 10701 10700 10700 10699 10700 10700 10702 10707 10715 10727 10738 10748 10755 10760 10763 10768 10774 10777 10775 10773 10779 10781 10789 10796 10803 10808
10658 10664 10671 10675 10680 10683 10687 10689 10690 10692 10692 10697 10699 10696 10698 10697 10697 10694 10695 10694 10693 10695 10695 10698 10700 10705 10713 10722 10733 10743 10748 10752 10756 10761 10765 10767 10764 10764 10768 10774 10780 10787 10794 10805
10639 10646 10653 10659 10663 10667 10672 10675 10677 10679 10680 10682 10686 10686 10689 10686 10686 10685 10685 10686 10685 10688 10691 10692 10697 10703 10710 10718 10728 10737 10740 10744 10747 10752 10754 10757 10758 10759 10760 10765 10771 10780 10787 10795
10621 10629 10636 10641 10647 10652 10657 10660 10663 10665 10667 10668 10673 10674 10677 10676 10674 10674 10674 10676 10676 10678 10682 10686 10693 10699 10708 10717 10725 10728 10730 10736 10742 10745 10747 10751 10755 10756 10760 10767 10770 10776 10780 10787
10603 10612 10618 10624 10630 10636 10642 10646 10648 10651 10652 10653 10659 10661 10663 10664 10663 10662 10663 10663 10666 10669 10675 10679 10686 10695 10705 10712 10714 10719 10724 10731 10735 10739 10744 10747 10747 10751 10754 10760 10766 10771 10778 10786
10587 10595 10601 10608 10614 10621 10626 10630 10632 10635 10637 10639 10645 10648 10648 10651 10652 10651 10650 10652 10657 10661 10667 10673 10683 10694 10700 10701 10707 10712 10718 10726 10729 10733 10736 10738 10745 10747 10751 10755 10763 10769 10775 10783
10573 10579 10586 10593 10601 10606 10610 10614 10617 10619 10621 10625 10631 10635 10637 10637 10637 10639 10638 10641 10648 10654 10658 10669 10683 10691 10691 10694 10704 10709 10713 10720 10725 10729 10733 10739 10743 10742 10746 10755 10765 10773 10779 10786
10558 10565 10572 10580 10586 10591 10595 10598 10601 10604 10608 10613 10619 10621 10623 10623 10624 10625 10628 10633 10639 10645 10654 10669 10674 10676 10684 10693 10699 10706 10711 10715 10721 10726 10734 10739 10739 10740 10745 10750 10760 10765 10773 10784
10545 10553 10561 10568 10571 10576 10580 10583 10587 10592 10597 10601 10605 10606 10609 10609 10612 10615 10620 10626 10631 10639 10653 10660 10663 10672 10684 10691 10694 10703 10709 10713 10716 10722 10727 10730 10734 10737 10742 10745 10752 10757 10762 10767
10533 10540 10546 10552 10557 10562 10566 10572 10577 10581 10584 10588 10590 10593 10595 10598 10603 10607 10612 10618 10623 10632 10642 10648 10655 10668 10672 10676 10687 10697 10704 10707 10708 10711 10717 10722 10727 10733 10738 10742 10748 10752 10753 10753
10522 10528 10534 10539 10544 10549 10556 10562 10563 10566 10571 10575 10577 10580 10584 10590 10596 10600 10605 10612 10617 10624 10633 10639 10652 10658 10664 10672 10684 10693 10698 10699 10702 10705 10711 10718 10725 10731 10734 10738 10740 10743 10745 10743
10513 10518 10522 10528 10534 10539 10545 10548 10552 10555 10558 10561 10567 10573 10579 10585 10590 10594 10598 10603 10610 10619 10624 10634 10648 10655 10662 10670 10681 10691 10693 10694 10698 10701 10707 10713 10716 10723 10730 10728 10725 10727 10727 10729
10505 10510 10515 10520 10526 10530 10535 10538 10541 10546 10550 10556 10562 10568 10574 10580 10586 10590 10594 10598 10605 10610 10619 10630 10642 10649 10657 10664 10673 10679 10685 10691 10696 10701 10706 10708 10708 10712 10716 10718 10715 10715 10714 10714
10503 10507 10511 10515 10519 10524 10528 10533 10538 10543 10548 10554 10560 10566 10571 10578 10583 10587 10590 10594 10600 10608 10616 10628 10641 10649 10656 10660 10667 10674 10679 10685 10691 10695 10696 10697 10699 10701 10702 10702 10701 10698 10697 10697
10500 10504 10508 10513 10517 10521 10526 10530 10535 10540 10546 10551 10557 10562 10568 10574 10579 10583 10587 10593 10599 10609 10619 10630 10639 10646 10654 10661 10666 10670 10677 10682 10682 10684 10687 10690 10691 10692 10691 10690 10688 10687 10687 10688